Provincetown, Massachusetts, United States (02657)
Lat: 42.06N, Lon: 70.18W
Wx Zone: MAZ022
Local Info
Past Weather Observations for Today

NOTE: This archive is for the closest National Weather Service station to Provincetown. Information may differ from the station used for current weather conditions.

Click here for Long-term Archive

Time Weather Temperature Dewpoint Humidity Pressure Winds Precip Visibility
21:56
Clear
66°F / 19°C 61°F / 16°C 83% 29.95 in
(1014 mb)
SW 12.7 mph
(SW 20 kph)
- 10SM
20:56
Clear
64°F / 18°C 61°F / 16°C 88% 29.95 in
(1014 mb)
SW 9.2 mph
(SW 15 kph)
- 10SM
19:56
Clear
64°F / 18°C 61°F / 16°C 88% 29.92 in
(1013 mb)
SW 9.2 mph
(SW 15 kph)
- 10SM
18:56
Clear
66°F / 19°C 61°F / 16°C 83% 29.92 in
(1013 mb)
SW 15 mph
(SW 24 kph)
- 10SM
17:56
Clear
70°F / 21°C 57°F / 14°C 64% 29.92 in
(1013 mb)
SW 16.1 mph
(SW 26 kph)
- 10SM
16:56
Partly Cloudy
72°F / 22°C 59°F / 15°C 65% 29.89 in
(1012 mb)
SW 16.1 mph
(SW 26 kph)
- 10SM
15:56
Clear
72°F / 22°C 61°F / 16°C 69% 29.86 in
(1011 mb)
SW 17.3 mph
(SW 28 kph)
- 10SM
14:56
Clear
72°F / 22°C 59°F / 15°C 65% 29.86 in
(1011 mb)
SW 16.1 mph
(SW 26 kph)
- 10SM
13:56
Partly Cloudy
72°F / 22°C 59°F / 15°C 65% 29.86 in
(1011 mb)
SW 17.3 mph
(SW 28 kph)
- 10SM
12:56
Mostly Cloudy
70°F / 21°C 61°F / 16°C 73% 29.86 in
(1011 mb)
SW 18.4 mph
(SW 30 kph)
- 10SM
11:56
Overcast
70°F / 21°C 61°F / 16°C 73% 29.86 in
(1011 mb)
SW 12.7 mph
(SW 20 kph)
- 10SM
11:37
Mostly Cloudy
72°F / 22°C 63°F / 17°C 73% 29.86 in
(1011 mb)
SSE 13.8 mph
(SSE 22 kph)
- 10SM
11:27
Overcast
70°F / 21°C 63°F / 17°C 78% 29.86 in
(1011 mb)
SW 11.5 mph
(SW 19 kph)
- 10SM
10:56
Overcast
66°F / 19°C 63°F / 17°C 88% 29.86 in
(1011 mb)
SSE 8.1 mph
(SSE 13 kph)
- 10SM
09:56
Overcast
63°F / 17°C 59°F / 15°C 88% 29.83 in
(1010 mb)
SE 5.8 mph
(SE 9 kph)
- 7SM
09:53
Overcast
63°F / 17°C 59°F / 15°C 88% 29.83 in
(1010 mb)
SSE 6.9 mph
(SSE 11 kph)
- 7SM
09:22
Overcast
Fog And Mist
63°F / 17°C 61°F / 16°C 94% 29.83 in
(1010 mb)
SE 6.9 mph
(SE 11 kph)
- 4SM
08:56
Overcast
Fog And Mist
59°F / 15°C 57°F / 14°C 94% 29.83 in
(1010 mb)
SE 6.9 mph
(SE 11 kph)
- 3/4SM
08:35
Overcast
Fog And Mist
59°F / 15°C 59°F / 15°C 100% 29.83 in
(1010 mb)
SE 6.9 mph
(SE 11 kph)
- 3/4SM
07:56
Overcast
Fog And Mist
59°F / 15°C 57°F / 14°C 94% 29.83 in
(1010 mb)
SSE 5.8 mph
(SSE 9 kph)
- 1SM
06:56
Overcast
Fog And Mist
57°F / 14°C 57°F / 14°C 100% 29.83 in
(1010 mb)
Calm - 1SM
06:51
Overcast
Fog And Mist
57°F / 14°C 55°F / 13°C 94% 29.83 in
(1010 mb)
Calm - 1SM
05:56
Overcast
55°F / 13°C 54°F / 12°C 94% 29.83 in
(1010 mb)
ESE 3.5 mph
(ESE 6 kph)
- 10SM
04:56
Overcast
55°F / 13°C 54°F / 12°C 94% 29.8 in
(1009 mb)
Calm - 10SM
03:56
Overcast
55°F / 13°C 52°F / 11°C 88% 29.8 in
(1009 mb)
NE 3.5 mph
(NE 6 kph)
- 10SM
03:27
Overcast
54°F / 12°C 52°F / 11°C 94% 29.8 in
(1009 mb)
Calm - 10SM
02:56
Overcast
54°F / 12°C 52°F / 11°C 94% 29.77 in
(1008 mb)
Calm - 10SM
01:56
Overcast
54°F / 12°C 52°F / 11°C 94% 29.77 in
(1008 mb)
Calm - 10SM
00:56
Overcast
54°F / 12°C 52°F / 11°C 94% 29.77 in
(1008 mb)
N 4.6 mph
(N 7 kph)
- 10SM
Time Weather Temperature Dewpoint Humidity Pressure Winds Precip Visibility


Weather for websites

WeatherForYou.com, LLC is not responsible for any damages or problems caused by this service. Current weather conditions are obtained from the closest station including government and personal stations which may have varying degrees of accuracy. Weather forecasts are derived from the NOAA NDFD. Like all things, this site belongs to Jesus Christ... He just trusts us to maintain it. If you have any questions or comments email webmaster@weatherforyou.com

Copyright © 2015, WeatherForYou.com LLC. All rights reserved.